sat.trackr.live / text

‹ back to catalog

STARLINK-2673

NORAD 48649 · 2021-044M

PAYLOAD ACTIVE UNKNOWN

§ Identity

Operator
Country
US
Launch date
2021-05-26
Launch site
AFETR
Launch vehicle
Mass (kg)
RCS (m²)

Purposes: comms

External: N2YO · Heavens-Above · Gunter

§ Orbital elements

Epoch: 2026-05-25T03:20:01.040352Z

Period
94.01 min
Inclination
53.1594°
Eccentricity
0.0001129
Mean motion
15.31701636 rev/d
Perigee alt
470.0 km
Apogee alt
471.5 km
Semi-major
6,848.9 km
B*
5.7686e-5
RAAN
118.2484°
Arg perigee
81.1790°
Mean anomaly
278.9339°
Rev number
27,553

§ Raw data

STARLINK-26731 48649U 21044M   26145.13890093  .00001425  00000+0  57686-4 0  99902 48649  53.1594 118.2484 0001129  81.1790 278.9339 15.31701636275533

JSON: /api/v1/satellites/48649 · /tle

For live sub-satellite position, see the globe view (requires WebGL).

§ Visibility from observer

Set your observer location to see the next 7 days of passes ≥ 10°. The values pass through the URL so the page stays shareable.

No JS? Fill the form by hand. The geolocation button needs JavaScript.